User: anonymous   Login
Location: Peebles
(55.6412°N, 3.1714°W)
Time: 02:24:21
(UTC+01:00)
Language:

FENGYUN 1C DEB - Orbit

View from above orbital plane
View from above orbital plane
View from above satellite
View from above satellite

Ground track
Ground track

The orbit data is extracted from the following two-line orbital elements,

1 30879U 99025AXR 22180.55686003  .00001357  00000-0  41756-3 0  9990
2 30879  99.3336 282.9595 0397282 315.8172  41.1891 14.06457923438910
Epoch (UTC): 29 June 2022 13:21:52
Eccentricity: 0.0397282
inclination: 99.3336°
perigee height: 583 km
apogee height: 1159 km
right ascension of ascending node: 282.9595°
argument of perigee: 315.8172°
revolutions per day: 14.06457923
mean anomaly at epoch: 41.1891°
orbit number at epoch: 43891

The dashed part of the orbit path shows where the satellite is in the earth's shadow,  

DLR